Regional Weather Roundup
Issued by NWS Cleveland, OH

Home | Current Version | Previous Version | Graphics & Text | Print | Product List | Glossary On
Versions: 1 2 3 4 5 6 7 8 9 10 11 12 13 14 15 16 17 18 19 20 21 22 23 24 25 26 27 28 29 30 31 32 33 34 35 36 37 38 39 40 41 42 43 44 45 46 47 48 49 50
000
ASUS41 KCLE 030800
RWRCLE
OHIO REGIONAL WEATHER ROUNDUP
NATIONAL WEATHER SERVICE WILMINGTON, OH
400 AM EDT MON AUG 03 2015

NOTE: "FAIR" INDICATES FEW OR NO CLOUDS BELOW 12,000 FEET WITH NO
SIGNIFICANT WEATHER AND/OR OBSTRUCTIONS TO VISIBILITY.

OHZ001>008-015>018-024>027-034-035-043-044-030900-
   NORTHWEST OHIO

CITY           SKY/WX    TMP DP  RH WIND       PRES   REMARKS
DEFIANCE       TSTM      64  61  90 S21G30    29.73F
FINDLAY        RAIN      64  62  93 S13       29.89F
TOLEDO EXPRESS RAIN      62  62 100 S14G22    29.74F FOG
TOLEDO EXEC    RAIN      63  60  90 S22G28    29.80F
LIMA           LGT RAIN  63  61  93 SE5       29.93R
$$

OHZ009>014-019>023-028>033-038-089-030900-
   NORTHEAST OHIO

CITY           SKY/WX    TMP DP  RH WIND       PRES   REMARKS
CLE-HOPKINS    LGT RAIN  63  61  93 SW7       29.89F
CLE-LAKEFRONT  CLOUDY    66  61  84 S8        29.84F
CUY CO. ARPT   NOT AVBL
LORAIN-ELYRIA  RAIN      62  61  96 S6        29.88F
ASHTABULA      CLOUDY    64  62  93 SW8       29.85F
AKRON-CANTON   MOCLDY    67  58  72 NW9       29.89R
WOOSTER        NOT AVBL
MANSFIELD      LGT RAIN  62  59  90 NW6       29.92R
YOUNGSTOWN     CLOUDY    67  59  75 NW9       29.87S
$$

OHZ042-051>053-060>062-070>072-077>081-030900-
  SOUTHWEST OHIO

CITY           SKY/WX    TMP DP  RH WIND       PRES   REMARKS
CINC-COVINGTON FAIR      67  61  81 S7        29.87F
CINC-LUNKEN    FAIR      64  63  96 CALM      29.87S
HAMILTON       FAIR      66  64  93 CALM      29.86F
DAYTON         NOT AVBL
WRIGHT-PAT AFB MOCLDY    70  63  78 N24G30    29.92R
DAYTON GENERAL FAIR      67  60  78 S6        29.86S
WILMINGTON     FAIR      66  59  78 SW8       29.87S
$$

OHZ036-037-039>041-045>050-054>059-063>069-073>076-082>088-030900-
  CENTRAL AND SOUTHEAST OHIO

CITY           SKY/WX    TMP DP  RH WIND       PRES   REMARKS
COLUMBUS       CLOUDY    70  60  70 SW6       29.85S
OSU AIRPORT    MOCLDY    70  61  73 NW16G29   29.89R
BOLTON FIELD   NOT AVBL
RICKENBACK AFB NOT AVBL
NEWARK         FAIR      65  61  87 N6        29.86R
MARION         LGT RAIN  63  60  90 CALM      29.94R
LANCASTER      FAIR      71  59  65 SW8       29.85F
ZANESVILLE     FAIR      68  59  73 S3        29.86R
NEW PHILLY     MOCLDY    70  60  70 NW12      29.90R
$$



USA.gov is the U.S. government's official web portal to all federal, state and local government web resources and services.